Location: Newark
(44.2886°N, 4.8431°E)
Time: 14:54:05
(UTC+00:00)

ZACube-1 - Pass Details

Date: 03 December 2020
Orbit: 584 x 665 km, 97.6° (Epoch: 14 January)

Event Time Altitude Azimuth Distance (km) Brightness Sun altitude
Rises 04:35:24 0° 18° (NNE) 2,832 ? -24.9°
Reaches altitude 10° 04:37:38 10° 25° (NNE) 1,933 ? -24.5°
Maximum altitude 04:41:40 46° 99° (E) 815 ? -23.8°
Drops below altitude 10° 04:45:45 10° 173° (S) 1,954 ? -23.1°
Sets 04:48:00 0° 179° (S) 2,867 ? -22.7°
